User: anonymous   Login
Location: Unspecified
(0.0000°N, 0.0000°E)
Time: 18:57:19
(UTC+00:00)
Language:

CANX-2 - Orbit

View from above orbital plane
View from above orbital plane
View from above satellite
View from above satellite

Ground track
Ground track

The orbit data is extracted from the following two-line orbital elements,

1 32790U 08021H   17084.27655193 +.00000329 +00000-0 +41876-4 0  9994
2 32790 097.5720 110.7821 0015454 088.5988 271.6999 14.87559031482288
Epoch (UTC): 25 March 2017 06:38:14
Eccentricity: 0.0015454
inclination: 97.5720°
perigee height: 595 km
apogee height: 616 km
right ascension of ascending node: 110.7821°
argument of perigee: 88.5988°
revolutions per day: 14.87559031
mean anomaly at epoch: 271.6999°
orbit number at epoch: 48228

The dashed part of the orbit path shows where the satellite is in the earth's shadow,  

DLR